User: anonymous
Location: Goheenville
(40.9070°N, 79.3720°W)
Time: 03:46:07
(UTC-04:00)
Language:

Cosmos 1727 Rocket - Orbit

View from above orbital plane
View from above orbital plane
View from above satellite
View from above satellite

Ground track
Ground track

The orbit data is extracted from the following two-line orbital elements,

1 16511U 86008B   14261.50853597 -.00000030  00000-0 -47060-4 0  5714
2 16511 082.9432 243.4594 0024151 200.1124 278.8693 13.75769283438401
Epoch (UTC): 18 September 2014 12:12:17
Eccentricity: 0.0024151
inclination: 82.9432°
perigee height: 961 km
apogee height: 997 km
right ascension of ascending node: 243.4594°
argument of perigee: 200.1124°
revolutions per day: 13.75769283
mean anomaly at epoch: 278.8693°
orbit number at epoch: 43840

The dashed part of the orbit path shows where the satellite is in the earth's shadow,  

DLR